ProjectID,Date,Electric Generation,Electric Utility Import,Facility Electric Load
,YYYY-MM-DD,kW,kW,kW
11,2006-01-24,1.8673333333333335,34.67041666666667,36.53775
11,2006-01-25,20.998375,34.08745833333334,55.08583333333334
11,2006-01-26,23.106916666666667,31.24225,54.34916666666666
11,2006-01-27,16.775166666666667,30.709041666666668,47.484208333333335
11,2006-01-28,23.94125,31.872708333333335,55.81395833333333
11,2006-01-29,30.35083333333333,29.136041666666667,59.486875
11,2006-01-30,20.585333333333335,31.311000000000003,51.89633333333334
11,2006-01-31,20.141625,24.635916666666663,44.777541666666664
11,2006-02-01,20.437541666666664,29.433541666666667,49.87108333333333
11,2006-02-02,24.458624999999998,27.9135,52.372125
11,2006-02-03,42.02791666666666,29.676583333333337,71.7045
11,2006-02-04,62.306916666666666,28.987666666666666,91.29458333333334
11,2006-02-05,24.149208333333334,32.632875,56.78208333333333
11,2006-02-06,34.89454166666667,30.227833333333333,65.122375
11,2006-02-07,15.068624999999999,31.993333333333336,47.06195833333334
11,2006-02-08,24.363583333333334,29.811333333333334,54.17491666666667
11,2006-02-09,21.891291666666664,28.5565,50.44779166666666
11,2006-02-10,33.8165,26.00991666666667,59.82641666666667
11,2006-02-11,50.224375,26.986500000000003,77.210875
11,2006-02-12,29.9175,26.195916666666665,56.113416666666666
11,2006-02-13,33.659,24.479791666666667,58.13879166666666
11,2006-02-14,25.61129166666667,27.009041666666665,52.620333333333335
11,2006-02-15,32.82691666666667,23.944791666666664,56.771708333333336
11,2006-02-16,22.883916666666668,25.93375,48.81766666666667
11,2006-02-17,26.415375,25.481666666666666,51.89704166666667
11,2006-02-18,32.030208333333334,21.733083333333337,53.763291666666674
11,2006-02-19,43.923,16.834416666666666,60.75741666666667
11,2006-02-20,36.65120833333334,20.364541666666668,57.015750000000004
11,2006-02-21,22.173541666666665,25.779666666666667,47.953208333333336
11,2006-02-22,35.27375,22.961791666666667,58.23554166666666
11,2006-02-23,32.634375,25.982958333333332,58.617333333333335
11,2006-02-24,43.267500000000005,31.637083333333333,74.90458333333333
11,2006-02-25,63.17308333333333,35.45141666666667,98.6245
11,2006-02-26,32.171,32.594249999999995,64.76525
11,2006-02-27,21.308875,28.024916666666666,49.33379166666667
11,2006-02-28,32.27954166666667,27.768833333333333,60.048375
11,2006-03-01,25.704791666666665,25.129625,50.83441666666667
11,2006-03-02,30.067791666666665,26.841083333333334,56.908874999999995
11,2006-03-03,32.186416666666666,24.241125,56.42754166666667
11,2006-03-04,58.19929166666666,24.949166666666667,83.14845833333332
11,2006-03-05,65.75862500000001,24.43341666666667,90.19204166666668
11,2006-03-06,28.855625,29.706833333333336,58.56245833333334
11,2006-03-07,17.967666666666666,27.471958333333333,45.439625
11,2006-03-08,36.576791666666665,28.05541666666667,64.63220833333334
11,2006-03-09,37.0335,27.63208333333333,64.66558333333333
11,2006-03-10,48.74979166666666,32.566583333333334,81.316375
11,2006-03-11,75.61749999999999,33.185916666666664,108.80341666666666
11,2006-03-12,28.21104166666667,36.86258333333333,65.073625
11,2006-03-13,21.643541666666668,33.999,55.64254166666667
11,2006-03-14,14.892208333333334,33.14691666666666,48.039125
11,2006-03-15,30.758625,31.730625,62.48925
11,2006-03-16,24.84866666666667,30.14708333333333,54.99575
11,2006-03-17,20.752041666666667,28.602166666666665,49.35420833333333
11,2006-03-18,54.97154166666667,29.12375,84.09529166666667
11,2006-03-19,56.651624999999996,29.076666666666668,85.72829166666666
11,2006-03-20,18.804750000000002,29.469958333333334,48.274708333333336
11,2006-03-21,4.001666666666667,33.111875,37.11354166666666
11,2006-03-22,33.126583333333336,28.073708333333332,61.20029166666667
11,2006-03-23,18.251625,33.321666666666665,51.57329166666666
11,2006-03-24,53.89879166666666,30.049875,83.94866666666667
11,2006-03-25,79.21645833333334,31.292041666666666,110.5085
11,2006-03-26,52.865874999999996,28.369791666666668,81.23566666666666
11,2006-03-27,30.961166666666667,27.91325,58.87441666666667
11,2006-03-28,24.260916666666663,29.572083333333335,53.833
11,2006-03-29,8.955666666666668,36.843875000000004,45.79954166666667
11,2006-03-30,1.9915416666666665,34.86266666666666,36.85420833333333
11,2006-03-31,46.97470833333333,22.558791666666664,69.5335
11,2006-04-01,0.0,,0.0
11,2006-04-02,23.753249999999998,26.82704166666667,50.58029166666667
11,2006-04-03,27.12483333333333,20.43325,47.55808333333333
11,2006-04-04,12.957,27.065541666666665,40.02254166666667
11,2006-04-05,18.046291666666665,38.141875,56.18816666666666
11,2006-04-06,0.0,59.566875,59.566875
11,2006-04-07,3.4259166666666663,78.091,81.51691666666666
11,2006-04-08,10.1805,78.3965,88.577
11,2006-04-09,0.0,53.941875,53.941875
11,2006-04-10,0.0,34.260416666666664,34.260416666666664
11,2006-04-11,3.448916666666667,46.430791666666664,49.87970833333333
11,2006-04-12,0.0014583333333333334,97.89854166666667,97.9
11,2006-04-13,0.0,97.89999999999999,97.89999999999999
11,2006-04-14,5.630624999999999,71.95216666666667,77.58279166666667
11,2006-04-15,26.0,21.900000000000002,47.900000000000006
11,2006-04-16,26.0,21.900000000000002,47.900000000000006
11,2006-04-17,26.0,21.900000000000002,47.900000000000006
11,2006-04-18,26.0,21.900000000000002,47.900000000000006
11,2006-04-19,26.0,21.900000000000002,47.900000000000006
11,2006-04-20,26.0,21.900000000000002,47.900000000000006
11,2006-04-21,26.0,21.900000000000002,47.900000000000006
11,2006-04-22,26.0,21.900000000000002,47.900000000000006
11,2006-04-23,24.958541666666665,22.300416666666667,47.25895833333333
11,2006-04-24,0.015833333333333335,46.974041666666665,46.989875
11,2006-04-25,0.0,42.243208333333335,42.243208333333335
11,2006-04-26,0.22916666666666666,49.38554166666666,49.614708333333326
11,2006-04-27,17.099166666666665,52.98904166666667,70.08820833333334
11,2006-04-28,21.108125,66.72500000000001,87.83312500000001
11,2006-04-29,19.740750000000002,84.4875,104.22825
11,2006-04-30,20.061666666666667,84.280125,104.34179166666667
11,2006-05-01,20.618708333333334,36.56733333333333,57.18604166666667
11,2006-05-02,17.842791666666667,25.745791666666666,43.58858333333333
11,2006-05-03,17.89475,40.728791666666666,58.62354166666667
11,2006-05-04,33.30179166666667,48.02875,81.33054166666668
11,2006-05-05,10.620416666666666,34.09395833333333,44.714375
11,2006-05-06,0.0,0.0,0.0
11,2006-05-07,0.0,0.0,0.0
11,2006-05-08,0.0,15.418708333333333,15.418708333333333
11,2006-05-09,1.3727083333333334,40.968916666666665,42.341625
11,2006-05-10,12.429458333333335,46.062666666666665,58.492125
11,2006-05-11,16.383125,44.149541666666664,60.532666666666664
11,2006-05-12,49.60795833333333,58.12029166666667,107.72825
11,2006-05-13,64.56641666666667,66.77845833333333,131.344875
11,2006-05-14,37.077374999999996,53.17733333333334,90.25470833333333
11,2006-05-15,2.256375,40.34583333333333,42.60220833333333
11,2006-05-16,36.705,46.956041666666664,83.66104166666666
11,2006-05-17,13.212833333333334,54.19845833333333,67.41129166666666
11,2006-05-18,41.14420833333333,51.02845833333333,92.17266666666666
11,2006-05-19,42.18958333333333,38.33358333333333,80.52316666666667
11,2006-05-20,68.19529166666666,60.491125000000004,128.68641666666667
11,2006-05-21,64.39145833333333,40.42058333333333,104.81204166666666
11,2006-05-22,45.45925,32.9145,78.37375
11,2006-05-23,31.994249999999997,44.97933333333333,76.97358333333332
11,2006-05-24,41.133625,46.338541666666664,87.47216666666667
11,2006-05-25,64.89654166666666,67.24004166666667,132.13658333333333
11,2006-05-26,60.879375,76.67404166666667,137.55341666666666
11,2006-05-27,85.91745833333333,31.14870833333333,117.06616666666666
11,2006-05-28,74.03666666666668,64.6355,138.67216666666667
11,2006-05-29,61.78424999999999,63.040875,124.82512499999999
11,2006-05-30,30.69633333333333,82.39320833333333,113.08954166666666
11,2006-05-31,0.0,70.84045833333333,70.84045833333333
11,2006-06-01,42.60491666666667,93.64991666666667,136.25483333333335
11,2006-06-02,36.642125,93.66837500000001,130.31050000000002
11,2006-06-03,75.95379166666667,107.91025,183.86404166666668
11,2006-06-04,74.246875,84.71425,158.961125
11,2006-06-05,0.0,87.54166666666667,87.54166666666667
11,2006-06-06,0.0,69.72483333333334,69.72483333333334
11,2006-06-07,28.383499999999998,67.88225,96.26575
11,2006-06-08,40.955708333333334,87.46304166666665,128.41875
11,2006-06-09,40.63575,87.98833333333333,128.62408333333332
11,2006-06-10,40.01108333333333,87.07354166666666,127.08462499999999
11,2006-06-11,27.021,79.45049999999999,106.47149999999999
11,2006-06-12,0.0,96.15866666666666,96.15866666666666
11,2006-06-13,0.0,59.35808333333333,59.35808333333333
11,2006-06-14,0.0,72.89858333333333,72.89858333333333
11,2006-06-15,59.24304166666667,71.73691666666666,130.97995833333334
11,2006-06-16,72.23358333333333,83.84616666666666,156.07975
11,2006-06-17,75.90145833333334,73.20233333333333,149.10379166666667
11,2006-06-18,77.55166666666666,88.13375,165.68541666666667
11,2006-06-19,46.43058333333334,82.88016666666667,129.31075
11,2006-06-20,49.15954166666666,62.330041666666666,111.48958333333333
11,2006-06-21,36.80220833333333,60.22416666666667,97.026375
11,2006-06-22,39.95245833333333,48.74933333333333,88.70179166666667
11,2006-06-23,77.80658333333334,86.93729166666667,164.743875
11,2006-06-24,81.5465,116.55845833333332,198.10495833333331
11,2006-06-25,78.02025,110.41508333333333,188.43533333333335
11,2006-06-26,58.745875000000005,71.01791666666666,129.76379166666666
11,2006-06-27,0.008791666666666666,71.79279166666667,71.80158333333334
11,2006-06-28,42.218583333333335,56.17358333333333,98.39216666666667
11,2006-06-29,44.362541666666665,67.248125,111.61066666666667
11,2006-06-30,67.72758333333333,67.27495833333333,135.00254166666667
11,2006-07-01,79.5185,80.68179166666667,160.20029166666666
11,2006-07-02,71.12483333333334,58.020833333333336,129.14566666666667
11,2006-07-03,74.219625,65.6875,139.907125
11,2006-07-04,68.504875,76.83366666666667,145.33854166666669
11,2006-07-05,46.06795833333334,82.00750000000001,128.07545833333336
11,2006-07-06,19.1265,72.74675,91.87325000000001
11,2006-07-07,66.18783333333333,60.90379166666667,127.091625
11,2006-07-08,74.612875,71.42804166666666,146.04091666666665
11,2006-07-09,42.74720833333333,49.78820833333333,92.53541666666666
11,2006-07-10,39.61529166666667,87.02054166666666,126.63583333333332
11,2006-07-11,24.228916666666667,72.15454166666667,96.38345833333334
11,2006-07-12,45.158375,70.091375,115.24975
11,2006-07-13,58.108291666666666,99.19375000000001,157.30204166666667
11,2006-07-14,69.69033333333333,74.979375,144.66970833333335
11,2006-07-15,74.37716666666667,51.275125,125.65229166666667
11,2006-07-16,60.207625,57.844875,118.05250000000001
11,2006-07-17,48.326875,102.32183333333334,150.64870833333333
11,2006-07-18,48.394958333333335,97.68954166666667,146.0845
11,2006-07-19,36.29116666666667,90.88729166666667,127.17845833333334
11,2006-07-20,62.345333333333336,91.85604166666667,154.201375
11,2006-07-21,69.4775,98.49804166666667,167.9755416666667
11,2006-07-22,74.54020833333333,90.69391666666667,165.234125
11,2006-07-23,68.75545833333334,101.902375,170.65783333333334
11,2006-07-24,0.8952083333333333,53.66891666666667,54.564125000000004
11,2006-07-25,0.0,89.3125,89.3125
11,2006-07-26,0.0,45.414125000000006,45.414125000000006
11,2006-07-27,0.0,47.412375,47.412375
11,2006-07-28,0.0,40.87379166666667,40.87379166666667
11,2006-07-29,0.0,26.605833333333333,26.605833333333333
11,2006-07-30,0.0,33.22345833333333,33.22345833333333
11,2006-07-31,24.440291666666667,66.57516666666668,91.01545833333334
11,2006-08-01,50.095499999999994,97.89354166666668,147.98904166666668
11,2006-08-02,48.636833333333335,60.01170833333333,108.64854166666666
11,2006-08-03,45.06704166666666,74.22833333333334,119.295375
11,2006-08-04,71.61320833333333,63.171625,134.78483333333332
11,2006-08-05,59.160875000000004,43.45633333333333,102.61720833333334
11,2006-08-06,64.44833333333334,111.17454166666666,175.622875
11,2006-08-07,44.29458333333333,108.11479166666668,152.409375
11,2006-08-08,36.223375,84.11745833333333,120.34083333333334
11,2006-08-09,35.924625,88.30125,124.225875
11,2006-08-10,0.0,69.48495833333332,69.48495833333332
11,2006-08-11,0.0,116.97304166666667,116.97304166666667
11,2006-08-12,39.336416666666665,139.231125,178.56754166666667
11,2006-08-13,39.5565,106.29258333333333,145.84908333333334
11,2006-08-14,0.0,105.097,105.097
11,2006-08-15,0.0,77.525125,77.525125
11,2006-08-16,8.63725,87.50883333333333,96.14608333333332
11,2006-08-17,0.0,39.50666666666667,39.50666666666667
11,2006-08-18,53.49704166666667,73.05620833333333,126.55324999999999
11,2006-08-19,76.54191666666667,96.064125,172.60604166666667
11,2006-08-20,19.411958333333335,58.55258333333333,77.96454166666666
11,2006-08-21,0.0,107.84970833333334,107.84970833333334
11,2006-08-22,0.0,36.823458333333335,36.823458333333335
11,2006-08-23,0.5155416666666667,47.006125,47.52166666666666
11,2006-08-24,15.395791666666668,84.64908333333334,100.044875
11,2006-08-25,70.9015,86.278,157.17950000000002
11,2006-08-26,81.65754166666666,107.75987500000001,189.41741666666667
11,2006-08-27,55.551874999999995,96.59008333333333,152.14195833333332
11,2006-08-28,0.0,94.90204166666666,94.90204166666666
11,2006-08-29,0.0,77.7715,77.7715
11,2006-08-30,33.42479166666667,70.93741666666666,104.36220833333334
11,2006-08-31,15.07425,72.03295833333333,87.10720833333332
11,2006-09-01,53.337041666666664,76.74220833333334,130.07925
11,2006-09-02,56.62716666666666,104.88970833333333,161.516875
11,2006-09-03,3.605,60.807375,64.412375
11,2006-09-04,0.0,48.19195833333333,48.19195833333333
11,2006-09-05,0.0,80.401625,80.401625
11,2006-09-06,34.65625,56.63941666666667,91.29566666666668
11,2006-09-07,0.0,71.160625,71.160625
11,2006-09-08,59.95945833333334,95.43754166666668,155.39700000000002
11,2006-09-09,79.39641666666667,80.85191666666667,160.24833333333333
11,2006-09-10,38.07241666666667,88.36845833333332,126.44087499999999
11,2006-09-11,0.403125,73.63595833333333,74.03908333333334
11,2006-09-12,4.526041666666667,61.205958333333335,65.732
11,2006-09-13,0.0,59.49270833333333,59.49270833333333
11,2006-09-14,1.5616666666666665,70.325625,71.88729166666667
11,2006-09-15,45.539375,78.696625,124.23599999999999
11,2006-09-16,71.7745,94.68725,166.46175
11,2006-09-17,66.12558333333332,86.89558333333333,153.02116666666666
11,2006-09-18,18.961833333333335,71.3585,90.32033333333334
11,2006-09-19,53.61658333333333,60.02104166666667,113.637625
11,2006-09-20,36.19529166666667,63.409124999999996,99.60441666666667
11,2006-09-21,32.936791666666664,60.173624999999994,93.11041666666665
11,2006-09-22,40.799083333333336,86.34183333333334,127.14091666666667
11,2006-09-23,59.2885,83.283625,142.572125
11,2006-09-24,53.5765,86.76020833333332,140.33670833333332
11,2006-09-25,3.90925,83.21433333333333,87.12358333333333
11,2006-09-26,0.0,102.91000000000001,102.91000000000001
11,2006-09-27,0.1758333333333333,102.91000000000001,103.08583333333334
11,2006-09-28,0.0,102.91000000000001,102.91000000000001
11,2006-09-29,0.0,102.91000000000001,102.91000000000001
11,2006-09-30,0.0,102.91000000000001,102.91000000000001
11,2006-10-01,0.0,102.91000000000001,102.91000000000001
11,2006-10-02,0.02345833333333333,84.17529166666667,84.19875
11,2006-10-03,0.0,56.79833333333334,56.79833333333334
11,2006-10-04,0.0,73.23595833333333,73.23595833333333
11,2006-10-05,0.0,65.17633333333333,65.17633333333333
11,2006-10-06,31.179708333333334,56.056125,87.23583333333333
11,2006-10-07,58.26920833333333,91.38641666666666,149.655625
11,2006-10-08,58.97345833333333,91.89216666666665,150.865625
11,2006-10-09,1.6027083333333334,66.74845833333333,68.35116666666667
11,2006-10-10,11.562708333333333,55.72658333333334,67.28929166666667
11,2006-10-11,13.016083333333334,61.957375000000006,74.97345833333334
11,2006-10-12,2.5241666666666664,57.10445833333333,59.628625
11,2006-10-13,39.37679166666667,59.52325,98.90004166666667
11,2006-10-14,50.065333333333335,79.4765,129.54183333333333
11,2006-10-15,40.2325,69.227125,109.459625
11,2006-10-16,0.0,69.79575,69.79575
11,2006-10-17,0.0,58.70012500000001,58.70012500000001
11,2006-10-18,28.118666666666666,55.852833333333336,83.9715
11,2006-10-19,7.389,52.86708333333333,60.256083333333336
11,2006-10-20,46.668125,57.954,104.62212500000001
11,2006-10-21,65.14770833333334,62.56275,127.71045833333335
11,2006-10-22,67.63895833333333,65.545,133.18395833333335
11,2006-10-23,0.7232916666666668,68.18124999999999,68.90454166666666
11,2006-10-24,10.021208333333332,34.92495833333333,44.94616666666666
11,2006-10-25,0.8704166666666667,52.246833333333335,53.11725
11,2006-10-26,0.0,47.14533333333333,47.14533333333333
11,2006-10-27,37.840250000000005,44.246874999999996,82.087125
11,2006-10-28,89.85320833333333,37.38279166666667,127.23599999999999
11,2006-10-29,71.93770833333333,42.79416666666666,114.731875
11,2006-10-30,0.0,57.031416666666665,57.031416666666665
11,2006-10-31,0.0,44.093291666666666,44.093291666666666
11,2006-11-01,6.318124999999999,55.43025,61.748375
11,2006-11-02,0.0,43.947291666666665,43.947291666666665
11,2006-11-03,29.990291666666668,43.7925,73.78279166666667
11,2006-11-04,44.322375,62.72345833333333,107.04583333333333
11,2006-11-05,48.074875,61.00466666666667,109.07954166666667
11,2006-11-06,0.0,53.11729166666667,53.11729166666667
11,2006-11-07,0.0,41.774166666666666,41.774166666666666
11,2006-11-08,6.413958333333333,52.745125,59.159083333333335
11,2006-11-09,0.0,54.83879166666667,54.83879166666667
11,2006-11-10,30.581333333333333,46.232875,76.81420833333334
11,2006-11-11,69.36195833333333,65.03933333333333,134.40129166666668
11,2006-11-12,53.72170833333333,58.92758333333333,112.64929166666667
11,2006-11-13,0.0,64.25758333333333,64.25758333333333
11,2006-11-14,0.0,48.25095833333333,48.25095833333333
11,2006-11-15,8.484875,44.51916666666667,53.00404166666667
11,2006-11-16,21.01879166666667,43.1045,64.12329166666667
11,2006-11-17,27.984666666666666,50.21154166666667,78.19620833333333
11,2006-11-18,46.56433333333334,66.59795833333334,113.16229166666668
11,2006-11-19,26.616333333333333,59.69595833333333,86.31229166666667
11,2006-11-20,0.0,62.35883333333334,62.35883333333334
11,2006-11-21,5.438833333333334,47.36525,52.80408333333334
11,2006-11-22,0.0,44.57541666666666,44.57541666666666
11,2006-11-23,0.0,24.688125,24.688125
11,2006-11-24,0.0,51.49337499999999,51.49337499999999
11,2006-11-25,32.81645833333334,47.28370833333333,80.10016666666667
11,2006-11-26,22.661375000000003,56.702666666666666,79.36404166666667
11,2006-11-27,0.0,65.31125,65.31125
11,2006-11-28,0.0,47.482458333333334,47.482458333333334
11,2006-11-29,0.0,63.27170833333333,63.27170833333333
11,2006-11-30,14.875375,47.91804166666666,62.79341666666666
11,2006-12-01,25.927458333333334,55.229125,81.15658333333334
11,2006-12-02,39.26795833333333,46.720499999999994,85.98845833333333
11,2006-12-03,22.307666666666666,50.573708333333336,72.881375
11,2006-12-04,0.0,52.253458333333334,52.253458333333334
11,2006-12-05,17.269875,44.12591666666666,61.39579166666666
11,2006-12-06,31.303583333333332,59.94391666666667,91.2475
11,2006-12-07,35.263416666666664,62.43116666666666,97.69458333333333
11,2006-12-08,42.39966666666667,53.58145833333333,95.98112499999999
11,2006-12-09,50.247166666666665,54.59525,104.84241666666667
11,2006-12-10,15.42125,56.88762500000001,72.308875
11,2006-12-11,10.913833333333335,38.71758333333333,49.63141666666667
11,2006-12-12,41.107166666666664,38.060125,79.16729166666667
11,2006-12-13,0.0,54.47004166666667,54.47004166666667
11,2006-12-14,23.639333333333337,37.064125,60.70345833333333
11,2006-12-15,56.20708333333334,46.16091666666667,102.36800000000001
11,2006-12-16,63.530750000000005,38.942708333333336,102.47345833333334
11,2006-12-17,43.160583333333335,48.502125,91.66270833333334
11,2006-12-18,37.53579166666667,36.2815,73.81729166666668
11,2006-12-19,2.108,38.61691666666667,40.724916666666665
11,2006-12-20,0.0,37.17104166666667,37.17104166666667
11,2006-12-21,10.553083333333333,41.3215,51.874583333333334
11,2006-12-22,9.029416666666666,43.95491666666666,52.984333333333325
11,2006-12-23,0.0,47.14025,47.14025
11,2006-12-24,0.0,31.95925,31.95925
11,2006-12-25,0.0,26.221083333333336,26.221083333333336
11,2006-12-26,3.7538750000000003,47.98345833333334,51.73733333333334
11,2006-12-27,0.005083333333333333,54.195375000000006,54.20045833333334
11,2006-12-28,0.0,47.750458333333334,47.750458333333334
11,2006-12-29,0.0,43.99258333333333,43.99258333333333
11,2006-12-30,0.0,57.08058333333333,57.08058333333333
11,2006-12-31,0.0,81.01954166666667,81.01954166666667
11,2007-01-01,0.0,151.9195,151.9195
11,2007-01-02,0.0,127.71525000000001,127.71525000000001
11,2007-01-03,13.295250000000001,39.56570833333333,52.860958333333336
11,2007-01-04,8.515083333333333,44.33420833333333,52.84929166666666
11,2007-01-05,20.678875,35.666666666666664,56.34554166666666
11,2007-01-06,33.309958333333334,33.11729166666667,66.42725
11,2007-01-07,26.392458333333334,34.068333333333335,60.460791666666665
11,2007-01-08,6.349791666666667,41.510083333333334,47.859875
11,2007-01-09,0.0,38.290625,38.290625
11,2007-01-10,21.544375000000002,38.368249999999996,59.912625
11,2007-01-11,43.38825,34.259875,77.648125
11,2007-01-12,61.21508333333333,31.793000000000003,93.00808333333333
11,2007-01-13,58.80079166666667,32.05654166666667,90.85733333333334
11,2007-01-14,33.714958333333335,30.619541666666667,64.3345
11,2007-01-15,19.960541666666668,34.40091666666667,54.36145833333333
11,2007-01-16,0.0016666666666666668,29.710416666666664,29.71208333333333
11,2007-01-17,0.19008333333333335,32.12833333333334,32.31841666666667
11,2007-01-18,0.0,52.00754166666667,52.00754166666667
11,2007-01-19,0.0,55.34020833333333,55.34020833333333
11,2007-01-20,22.761916666666664,39.26654166666667,62.02845833333333
11,2007-01-21,31.649375000000003,32.89541666666667,64.54479166666667
11,2007-01-22,11.540125000000002,41.31516666666666,52.855291666666666
11,2007-01-23,11.757666666666667,37.21129166666667,48.96895833333333
11,2007-01-24,20.826166666666666,35.117,55.94316666666666
11,2007-01-25,20.594916666666666,30.897833333333335,51.49275
11,2007-01-26,20.102375,36.799125,56.9015
11,2007-01-27,32.09645833333334,30.544124999999998,62.64058333333334
11,2007-01-28,33.649375,29.32420833333333,62.97358333333333
11,2007-01-29,16.480875,32.72204166666666,49.20291666666667
11,2007-01-30,26.62454166666667,32.369125000000004,58.99366666666667
11,2007-01-31,20.371125,32.616708333333335,52.987833333333334
11,2007-02-01,11.868041666666668,33.001041666666666,44.869083333333336
11,2007-02-02,20.097166666666666,34.275708333333334,54.372875
11,2007-02-03,53.3825,29.906625000000002,83.289125
11,2007-02-04,43.92854166666667,30.929291666666668,74.85783333333333
11,2007-02-05,40.67970833333333,30.055125,70.73483333333333
11,2007-02-06,24.16179166666667,31.933000000000003,56.09479166666667
11,2007-02-07,20.722875,34.11983333333333,54.842708333333334
11,2007-02-08,19.06533333333333,37.447875,56.51320833333334
11,2007-02-09,40.090291666666666,30.975458333333332,71.06575
11,2007-02-10,54.37833333333333,32.13429166666666,86.51262499999999
11,2007-02-11,69.18675,30.602791666666665,99.78954166666666
11,2007-02-12,42.503499999999995,32.25575,74.75925
11,2007-02-13,0.0,42.92183333333333,42.92183333333333
11,2007-02-14,0.0,34.851875,34.851875
11,2007-02-15,4.72625,38.14908333333333,42.87533333333333
11,2007-02-16,38.799416666666666,35.86120833333333,74.660625
11,2007-02-17,62.44391666666667,42.752,105.19591666666668
11,2007-02-18,48.807874999999996,42.271375,91.07925
11,2007-02-19,33.19291666666667,42.14454166666667,75.33745833333333